Bodensee (Kressbronn): 6,7°C  -  Teich der Wetterzentrale Bad Schussenried: 5,6°C |  Schneehöhe Kreuzthal-Steinberg (930 m ü. NN): 8 cm   
01.04.2020Höhe
ü. NN
ZeitTemperatur (°C)Nieder-
schlag
Luft-
feuchte
Luft-
druck
Wind
StationaktuellMinimumMaximumaktuellMaximum
Aldingen654 m06:31-4,9-4,9 (07:35)-0,3 (16:02)0,0 l/m²80%1023,40,0 km/h (0 Bft) W29,6 km/h (5 Bft) W (14:48)
Allmendingen541 m06:30-6,3-6,3 (07:35)-2,1 (15:10)0,0 l/m²88%1023,13,2 km/h (1 Bft) NO35,4 km/h (5 Bft) O (15:35)
Altshausen574 m06:30-3,9-3,9 (05:14)-1,1 (00:16)0,0 l/m²67%1020,68,0 km/h (2 Bft) N-NW11,3 km/h (2 Bft) N (06:10)
Amstetten-Reutti663 m06:30-4,6-4,7 (06:15)-1,5 (16:55)0,0 l/m²86%1022,94,8 km/h (1 Bft) W48,3 km/h (6 Bft) W (15:55)
Amtzell-Grenis677 m06:30-3,4-4,1 (06:05)-1,4 (00:00)0,0 l/m²62%1022,76,4 km/h (2 Bft) O-NO6,4 km/h (2 Bft) W-SW (00:00)
Aulendorf570 m06:30-3,0-3,0 (06:19)-0,5 (00:00)0,0 l/m²72%1021,73,2 km/h (1 Bft) N-NO14,5 km/h (3 Bft) O-NO (05:13)
Bad Krozingen233 m06:30-2,2-2,2 (06:30)3,7 (16:05)0,0 l/m²78%1023,35,2 km/h (1 Bft) SW38,1 km/h (5 Bft) N (17:05)
Bad Saulgau595 m06:30-5,1-5,1 (07:00)-1,9 (15:00)0,0 l/m²87%1021,50,0 km/h (0 Bft) S-SO25,7 km/h (4 Bft) S (11:35)
Bad Saulgau, Mannsgrab588 m06:33-4,8-6,1 (05:34)-1,7 (00:17)0,0 l/m²86%1024,00,0 km/h (0 Bft) N0,0 km/h (0 Bft) N (00:00)
Bad Saulgau-Lampertsweiler627 m06:30-4,5-4,8 (06:15)0,2 (00:00)0,0 l/m²82%1024,66,4 km/h (2 Bft) N-NW22,5 km/h (4 Bft) N-NW (01:15)
Bad Schussenried572 m06:30-4,1-4,1 (06:25)-1,1 (00:00)0,0 l/m²87%1021,10,0 km/h (0 Bft) NO9,7 km/h (2 Bft) NO (03:15)
Bergatreute615 m01:45-0,7-0,7 (00:45)0,0 (00:00)0,0 l/m²77%1023,512,9 km/h (3 Bft) NO16,1 km/h (3 Bft) O-NO (01:40)
Biberach (Riss), Boehringer533 m06:40-4,0-4,4 (06:30)-1,1 (00:30)0,0 l/m²90%1021,84,0 km/h (1 Bft) N11,9 km/h (3 Bft) N (03:00)
Biberach (Riss), Realschule553 m06:30-3,9-4,0 (06:30)-0,3 (00:00)0,0 l/m²87%1023,68,0 km/h (2 Bft) N-NW12,9 km/h (3 Bft) N (06:05)
Burgrieden523 m06:30-4,1-4,1 (06:30)-0,4 (00:00)0,0 l/m²82%1022,80,0 km/h (0 Bft) NO4,8 km/h (1 Bft) O-NO (02:50)
Burgrieden-Hochstetten510 m06:30-4,6-4,6 (07:00)-0,9 (15:40)0,0 l/m²89%1023,23,2 km/h (1 Bft) N-NO25,7 km/h (4 Bft) NO (12:55)
Ebersbach579 m06:30-3,8-3,8 (05:55)-0,1 (00:00)0,0 l/m²86%1023,011,3 km/h (2 Bft) N-NO16,1 km/h (3 Bft) NO (01:25)
Ebersbach-Boos605 m06:30-4,1-4,2 (05:55)-0,1 (00:00)0,0 l/m²88%1022,816,1 km/h (3 Bft) O22,5 km/h (4 Bft) O (01:00)
Ebersbach-Menzenweiler661 m06:30-3,8-3,9 (06:20)-0,6 (00:00)0,0 l/m²88%1022,722,5 km/h (4 Bft) NO24,1 km/h (4 Bft) O-NO (01:05)
Ehingen535 m01:10-2,5-2,5 (01:10)-1,3 (00:05)0,0 l/m²70%1025,40,0 km/h (0 Bft) N-NO5,0 km/h (1 Bft) N-NO (00:15)
Erlenmoos645 m06:30-3,4-3,4 (06:25)-0,9 (00:00)0,0 l/m²86%1022,64,8 km/h (1 Bft) NO12,9 km/h (3 Bft) O-NO (01:35)
Ertingen569 m06:30-3,5-3,5 (06:30)-0,6 (00:00)0,0 l/m²84%1022,73,2 km/h (1 Bft) N16,1 km/h (3 Bft) N-NO (04:10)
Friedrichshafen405 m06:30-1,7-1,7 (07:00)0,9 (13:30)0,0 l/m²78%1022,59,7 km/h (2 Bft) N27,4 km/h (4 Bft) NO (15:10)
Günzburg443 m06:30-4,7-4,8 (06:05)-1,1 (00:00)0,0 l/m²87%1020,80,0 km/h (0 Bft) NO0,0 km/h (0 Bft) NO (00:00)
Hochdorf-Appendorf537 m06:30-4,6-5,8 (06:05)-1,7 (00:15)0,0 l/m²66%1022,58,0 km/h (2 Bft) N14,5 km/h (3 Bft) N-NW (03:20)
Höchsten802 m06:30-4,1-4,1 (06:30)-1,4 (00:00)0,0 l/m²82%1020,324,1 km/h (4 Bft) N25,7 km/h (4 Bft) NO (02:45)
Horgenzell618 m06:30-1,9-1,9 (03:45)-0,6 (00:05)0,0 l/m²76%1020,14,8 km/h (1 Bft) N-NO19,3 km/h (3 Bft) N-NO (00:50)
Hoßkirch632 m06:30-6,5-6,6 (06:20)-1,0 (00:15)0,0 l/m²88%1021,51,6 km/h (1 Bft) O14,5 km/h (3 Bft) O-NO (00:20)
Isny, Am Dreifingerbach695 m06:30-6,1-6,2 (06:25)0,1 (01:00)0,0 l/m²85%1021,30,0 km/h (0 Bft) W14,5 km/h (3 Bft) O-NO (01:05)
Isny, Weidachweg706 m06:30-4,1-4,3 (06:20)0,3 (00:25)0,0 l/m²77%1023,74,8 km/h (1 Bft) W12,9 km/h (3 Bft) W (00:10)
Kappel-Grafenhausen163 m06:25-1,6-1,6 (07:00)3,3 (14:55)0,0 l/m²78%1021,24,8 km/h (1 Bft) N30,6 km/h (5 Bft) N-NO (16:55)
Kißlegg-Staibshof709 m06:30-3,4-3,4 (06:30)-0,9 (00:00)0,0 l/m²82%1022,36,4 km/h (2 Bft) N-NO14,5 km/h (3 Bft) O (01:50)
Kressbronn398 m06:32-2,3-2,3 (06:32)1,4 (00:00)0,0 l/m²76%1021,10,0 km/h (0 Bft) NO22,5 km/h (4 Bft) NO (00:54)
Kreuzthal-Steinberg-Alpe930 m06:30-4,5-4,8 (04:00)-2,5 (00:00)0,0 l/m²88%1022,02,2 km/h (1 Bft) W22,0 km/h (4 Bft) W-NW (00:10)
Kreuzthal-Steinberggipfel1040 m06:30-3,6-4,0 (02:20)-3,1 (00:10)-74%1022,012,6 km/h (3 Bft) O37,1 km/h (5 Bft) O-SO (00:10)
Kristberg im Montafon (AT)1425 m06:30-6,4-6,6 (04:51)-5,3 (00:40)0,0 l/m²59%1026,20,0 km/h (0 Bft) N-NO10,1 km/h (2 Bft) NO (01:47)
Laupheim500 m06:30-3,9-3,9 (06:25)0,0 (00:00)0,0 l/m²82%1022,20,0 km/h (0 Bft) NO9,7 km/h (2 Bft) O-SO (00:20)
Leutkirch-Heggelbach670 m06:30-4,7-4,7 (06:20)-2,6 (00:30)0,0 l/m²87%1021,61,6 km/h (1 Bft) N-NO8,0 km/h (2 Bft) N-NO (03:30)
Lindau-Insel420 m06:30-1,3-1,3 (07:25)1,8 (14:55)0,0 l/m²73%1021,60,0 km/h (0 Bft) O-NO29,0 km/h (5 Bft) NO (17:05)
Lindau-Stadt412 m06:30-2,2-2,2 (07:25)1,2 (14:55)0,0 l/m²76%1021,81,6 km/h (1 Bft) NO33,8 km/h (5 Bft) N-NO (15:40)
Maierhöfen im Allgäu733 m06:30-3,8-3,8 (06:30)-1,2 (01:35)0,0 l/m²76%1021,84,8 km/h (1 Bft) NW25,7 km/h (4 Bft) O-SO (02:05)
Maselheim543 m06:30-4,8-5,0 (07:25)-2,3 (13:20)0,0 l/m²87%1023,14,8 km/h (1 Bft) N-NW24,1 km/h (4 Bft) O-NO (15:20)
Maselheim-Sulmingen548 m06:30-5,1-5,1 (07:05)-2,2 (15:15)0,0 l/m²90%1024,41,6 km/h (1 Bft) NW20,9 km/h (4 Bft) N-NO (12:15)
Mietingen-Baltringen528 m06:30-4,9-4,9 (06:30)-1,3 (00:45)0,0 l/m²86%1024,70,0 km/h (0 Bft) O-NO4,8 km/h (1 Bft) N-NO (01:20)
Mindelheim-Apfeltrach620 m06:31-5,7-5,8 (06:29)-2,7 (00:00)0,0 l/m²87%1024,00,0 km/h (0 Bft) NO0,0 km/h (0 Bft) O-NO (00:00)
Mittelbiberach577 m06:31-4,4-4,4 (06:08)-1,0 (00:16)0,0 l/m²84%1023,83,2 km/h (1 Bft) NO12,8 km/h (3 Bft) NO (05:56)
Neresheim552 m06:01-6,8-6,8 (06:01)-2,0 (00:00)0,0 l/m²89%1021,70,0 km/h (0 Bft) O4,0 km/h (1 Bft) NO (01:00)
Neukirch570 m06:30-3,1-3,1 (07:05)-0,9 (14:35)0,0 l/m²81%1021,96,4 km/h (2 Bft) N-NO37,0 km/h (5 Bft) N-NO (11:55)
Ochsenhausen, Birkenstraße613 m06:30-5,4-5,4 (07:10)-2,2 (12:50)0,0 l/m²82%1023,21,6 km/h (1 Bft) NO3,2 km/h (1 Bft) S-SW (07:05)
Ochsenhausen, Unt. Wiesen575 m06:30-5,6-5,7 (06:15)-2,4 (00:00)0,0 l/m²89%1024,40,0 km/h (0 Bft) NO4,8 km/h (1 Bft) NO (00:00)
Opfenbach-Göritz561 m06:31-4,3-5,2 (05:22)-2,8 (00:00)0,0 l/m²74%1020,00,0 km/h (0 Bft) N-NO6,5 km/h (2 Bft) O-NO (00:18)
Ostrach619 m06:30-3,8-3,8 (04:15)-0,6 (00:00)0,0 l/m²89%1021,112,9 km/h (3 Bft) N-NW12,9 km/h (3 Bft) N-NW (06:30)
Ravensburg, Goethestraße428 m06:30-1,9-1,9 (06:30)1,3 (00:00)0,0 l/m²80%1021,812,9 km/h (3 Bft) N-NO16,1 km/h (3 Bft) O-NO (06:15)
Ravensburg-Wernsreute511 m06:30-3,2-3,2 (06:25)0,0 (15:50)0,0 l/m²82%1024,619,3 km/h (3 Bft) N35,4 km/h (5 Bft) N-NO (11:45)
Reichenbach an der Fils343 m06:30-2,2-2,2 (06:30)1,0 (00:00)0,0 l/m²77%1025,41,6 km/h (1 Bft) SO12,9 km/h (3 Bft) O-SO (05:10)
Riedlingen530 m06:30-3,4-3,4 (06:30)-1,0 (00:00)0,0 l/m²81%1023,00,0 km/h (0 Bft) O-NO0,0 km/h (0 Bft) N (00:00)
Rißtissen489 m06:30-3,2-3,3 (06:30)-0,2 (00:00)0,0 l/m²85%1020,61,6 km/h (1 Bft) O-NO8,0 km/h (2 Bft) O-NO (03:30)
Rottweil-Hausen681 m06:33-4,2-4,4 (05:57)-1,9 (00:00)0,0 l/m²83%1023,84,7 km/h (1 Bft) N-NW6,5 km/h (2 Bft) N (02:14)
Schemmerhofen520 m06:302,72,7 (00:00)2,7 (00:00)0,0 l/m²55%1021,80,0 km/h (0 Bft) NO0,0 km/h (0 Bft) NO (00:00)
Silbertal im Montafon (AT)884 m06:31-4,4-4,4 (06:14)-1,6 (00:01)0,0 l/m²85%1026,10,0 km/h (0 Bft) O-NO0,0 km/h (0 Bft) O-NO (00:00)
Tettnang466 m06:29-1,6-1,6 (06:26)1,0 (00:00)0,0 l/m²72%1021,71,4 km/h (1 Bft) O-NO16,2 km/h (3 Bft) O-SO (01:07)
Tuttlingen648 m06:26-4,4-4,4 (06:26)-2,1 (00:01)0,0 l/m²76%1023,60,0 km/h (0 Bft) S5,2 km/h (1 Bft) W-SW (03:26)
Tuttlingen, Möhringer-Vorstadt711 m06:30-4,4-4,5 (07:10)-2,4 (16:05)0,0 l/m²82%1022,60,0 km/h (0 Bft) O-NO25,7 km/h (4 Bft) N-NW (12:35)
Ummendorf547 m06:30-4,8-4,8 (06:30)-0,7 (00:10)0,0 l/m²68%1023,80,0 km/h (0 Bft) O-NO16,1 km/h (3 Bft) O (01:05)
Ummendorf-Fischbach558 m06:30-5,2-5,4 (06:15)-1,9 (01:25)0,0 l/m²70%1023,70,0 km/h (0 Bft) O4,8 km/h (1 Bft) O (04:20)
Waldburg707 m06:30-3,3-3,3 (06:30)-0,8 (00:00)0,0 l/m²80%1021,48,0 km/h (2 Bft) N19,3 km/h (3 Bft) N (02:35)
Waltenhofen im Allgäu720 m06:30-7,2-7,3 (06:15)-2,2 (01:05)0,0 l/m²90%1022,30,0 km/h (0 Bft) W17,7 km/h (3 Bft) W (11:50)
Wangen, Südring548 m06:30-4,1-4,1 (06:25)-0,3 (00:00)0,0 l/m²84%1021,54,7 km/h (1 Bft) NO13,0 km/h (3 Bft) NO (01:25)
Warthausen-Birkenhard581 m06:29-4,3-4,3 (05:35)-1,2 (00:00)0,0 l/m²86%1023,410,1 km/h (2 Bft) N-NO13,7 km/h (3 Bft) NO (06:13)
Winterlingen785 m06:30-5,6-5,6 (06:30)-2,8 (01:00)0,0 l/m²84%1022,42,9 km/h (1 Bft) O-NO3,6 km/h (1 Bft) NO (00:55)

niederschlagsdatenbank | info | login - erfassung

Sollten Sie Interesse haben, an der Niederschlagsdatenbank teilzunehmen, finden Sie > hier < weitere Informationen.
Datum: . . Kalender
Anmerkung:0,0 = nicht messbarer Niederschlag
 -  = kein Niederschlag
 k  = kumulierter Niederschlag

< 10.03.201912.03.2019 >


Niederschlagswerte vom 11.03.2019    -    derzeit 112 Stationen

Die Niederschlagswerte des gewählten Tages lassen sich durch Klicken auf das Datum sortieren.
Die Angaben sind in l/m².

Station08.03.09.03.10.03.11.03.12.03.13.03.14.03.Bemerkung 11.03.
Aichstetten Ulmenstraße 7-------
Aichstetten-Nestbaum Nestbaum-------
Albbruck Furmisstr. 180,515,716,25,01,26,028,3
Wetter Kapriolen von Sonne, Regen, Schneeregen und Graupelschauer [weiterlesen...]
Regen Schneeregen Schneegriesel
Allmendingen Querqueviller Ring 6-4,011,0-1,02,89,5
Amstetten-Reutti Gassenäcker 130,21,66,81,20,42,611,8
Schnee Graupel
Aulendorf Steinenbacher Weg 33-4,0-8,2 k-5,05,2
Regen Schneeregen Schnee
Aulendorf-Blönried Heuweg 32--8,2-0,03,08,3
Bad Bellingen Rheinstraße 76-------
Bad Buchau Hanfweiher 1-4,03,01,50,012,07,0
Schnee Graupel
Bad Saulgau Walserweg0,01,05,06,00,08,09,0
Schnee
Bad Saulgau-Hochberg Lampertsweiler Straße 12-2,14,24,4-7,08,0
Bad Schussenried Konradstraße0,12,04,13,20,512,08,3
Nach einem heftigen Schneesturm liegen Mitte Vormittag sechs Zentimete [weiterlesen...]
Schnee Graupel Eiskörner
Bad Schussenried Lortzingstrasse-2,54,55,0-12,09,0
Schnee
Bad Schussenried Klosterstraße-2,24,04,51,012,09,0
Schnee
Bad Schussenried Theodor-Storm-Strasse-2,34,04,0---
Schnee Graupel
Bad Schussenried-Hopferbach Unterer Öschweg 16/1-2,24,52,00,212,011,0
Schnee
Bad Schussenried-Lufthütte Hauptgasse 17-2,05,04,0-11,09,0
Regen
Bad Schussenried-Sattenbeuren Ortsstraße 7-------
Bad Schussenried-Schwaigfurt Schwaigfurt 2-2,85,02,0-9,511,0
Bad Waldsee-Haisterkirch Zur Spitzenkapelle 1-3,05,05,50,88,512,0
23:00: -1/+4,5°C, gegen 8:30 Aufzug einer blauer Wolkenfront mit bliz [weiterlesen...]
Schnee
Bad Wurzach-Seibranz Kimpflerhof 2 1,03,58,53,31,33,310,5
Baienfurt Untere Bergstrasse 7-7,010,07,02,03,018,0
Regen Schneeregen Schnee Graupel
Balzheim Hinterm Liess 19-3,02,55,00,23,04,5
Schneeregen Schnee
Berg-Kleintobel Kleintobel0,96,311,55,03,06,215,9
Regen Schneeregen Schnee Graupel
Biberach Amriswilstrasse-2,62,60,51,39,06,9
Schnee Schneegriesel
Biberach Strölinweg--5,01,00,59,510,0
Regen
Biberach Erlenweg-3,02,5-1,09,56,0
Biberach Neue Heimat 5-2,83,02,01,09,05,0
Regen
Biberach Mittelbergstraße 9-2,02,01,50,59,06,0
Schnee
Biberach Auf dem Lindele-------
Biberach-Bergerhausen Löcherstr.1-2,03,02,00,28,57,0
Bierstetten Schloßbühl 6-1,84,54,0-10,55,0
Regen
Blaubeuren-Pappelau Sotzenhauserstr.7-3,05,0----
Schneehöhe: 6 cm
Bühlertal Wolfinstraße 164,03,020,02,0-9,514,0
Regen
Dettingen a. d. Iller Schleifweg 4-------
Dornstadt-Tomerdingen Maienweg 90,03,05,5-0,32,011,0
Dürnau Dorfäckerweg 5-2,02,52,00,19,55,0
Schnee Graupel
Eberhardzell Lilienweg-2,92,71,1-9,05,3
Ebersbach-Roßwälden Appenwiesen-2,17,10,00,02,85,5
Um die Mittagszeit ein paar schneeflocken sonst trocken.
Schnee
Ehingen Rosenstraße0,24,98,80,50,43,07,0
Regen Schneeregen Schnee
Schneehöhe: 4 cm
Ehingen Zanderstraße-2,26,8--3,07,1
Ehingen Schlaufenbühl-5,36,44,30,53,36,9
Schnee
Schneehöhe: 6 cm
Ehingen Schillerstraße0,02,86,02,00,73,37,8
der Höchststand an Schneehöhe war 3 cm, der allerdings rasch geschmo [weiterlesen...]
Schnee
Schneehöhe: 1 cm
Ehingen-Herbertshofen Tobelweg 9-------
Eislingen Albstraße 1251,42,99,31,40,33,16,0
Schneeregen Schnee Graupel
Erbach-Bach Hauptstraße 240,02,04,03,00,23,07,0
Schnee Graupel
Erlenmoos Haldenweg 15-3,33,43,40,19,37,9
Regen Schnee Graupel
Füramoos Hungersberg 10,00,06,20,00,02,111,0
Gutenzell Kleinser Berg 1-3,03,52,50,07,05,0
Gutenzell-Hürbel Bei der Sägmühle 1-3,53,02,01,08,06,0
Regen Schnee
Herbertingen Drosselweg-3,05,01,50,3-19,5
Gegen8 Uhr brach die Hölle los.Bei stürmischem Wind zuerst Graupel d [weiterlesen...]
Schnee Graupel
Herbertingen Hirschstrasse-3,05,01,0-11,09,0
Schnee Graupel
Hochdorf-Schweinhausen Lindenweg 2--4,0--8,87,8
Hohentengen-Bremen Bremer Halde 4-2,06,02,00,05,014,0
Regen Schnee
Horgenzell-Ringgenweiler Ringgenweiler 6201,36,14,56,22,54,28,4
Schneesturm von ca. 9.00h bis 9.45h mit 8 cm Schnee
Schnee
Hüttisheim Ulmer Weg 20,02,53,57,00,02,04,5
Schnee
Illerkirchberg Mahdauweg 20-2,84,63,0-2,79,1
Schnee
Illerrieden-Wangen Am Muckenberg 12-3,02,53,0-2,55,0
Immenstaad Stockwiesen 10-------
Inzigkofen Butzenweg 10,05,16,05,20,010,010,5
Schnee
Isny Am Dreifingerbach 393,08,414,82,20,04,015,4
Schnee Graupel Hagel
Kirchberg Rosenstr. 70,03,24,05,00,16,05,1
5 cm Neuschnee
Schnee
Kreuzthal-Steinberg-Alpe Im Kreuzbachthal 855,07,715,35,60,79,022,4
Schnee Graupel
Schneehöhe: 32 cm
Langenau Wasserstr. 54-11,53,07,02,0-3,013,0
Langenenslingen Schattenweiler Str. 180,03,17,30,20,012,110,1
Regen Schneeregen
Schneehöhe: 1 cm
Leutkirch Unterer Auenweg 250,75,08,93,04,45,010,5
Schnee
Leutkirch Nachtigallenweg 281,05,012,57,06,05,011,0
Schnee
Leutkirch-Adrazhofen Bergstraße 201,06,59,56,04,55,511,0
Merklingen Millergasse 9-------
Mietingen Seerosenweg 10-------
Mietingen-Walpertshofen Bussenweg 31-3,04,02,01,03,05,0
Mittelbiberach-Reute Rindenmooser Straße 2-2,23,01,51,110,36,4
Nieselregen Schneeregen Schnee
Moosburg Käserweg 5-2,53,00,90,513,06,5
Am frühen Vormittag heftiger Schneeschauer. Im weiteren Tagesverlauf [weiterlesen...]
Schneeregen Schnee Graupel
Münsingen-Rietheim In der Lise 200,22,414,21,40,84,07,0
Schnee Graupel
Schneehöhe: 5 cm
Neresheim Alfred-Delp-Straße 80,54,69,92,80,02,216,6
Schnee
Oberdischingen Normannenstraße 7-------
Ochsenhausen Ehrensberger Weg 50,02,22,81,50,16,55,0
Regen Schnee
Öpfingen Hauptstraße 990,13,26,03,00,12,55,8
5cm Schnee
Schnee
Ostrach Uhlandweg0,01,58,55,00,04,012,0
Schnee Gewitter
Pfaffenhofen-Kadeltshofen Mühlbachstraße 4-1,03,02,0-1,08,0
Pfullendorf Am Schweizersbild --13,0--2,3-
Rangendingen Donaustraße 19-4,010,0--15,014,0
Ravensburg Bleicherstraße0,56,58,08,1-5,217,0
Ravensburg-Schmalegg St.-Magdalena-Ring 420,96,05,511,52,05,019,2
Ravensburg-Wernsreute Wernsreute 250,64,09,04,6-2,214,4
Schneeregen Schnee
Ravensburg-Weststadt Karl-Erb-Ring 1421,14,07,58,01,04,014,5
Schnee
Regensburg Orleansstraße 3-------
Riedhausen Blütenweg 130,26,411,43,2-2,212,6
Temp. -1,9°C / +3,7°C, Windböen NW 48,3 km/h
Schnee
Riedlingen Berliner Str. 41--10,52,0-10,09,2
Schnee
Riedlingen-Neufra Panoramaweg-------
Riedlingen-Neufra Riedlinger Strasse0,02,85,21,80,510,57,8
- 0,4 Grad, wolkenloser klarer Himmel, volle Sonne
Schelklingen-Gundershofen Schwarzer-Straße 141,0-11,07,01,05,010,0
Temp. zw. -1,4°C und +11,9°C. Morgens starker Schneefall. Mittags So [weiterlesen...]
Schemmerberg Drosselweg 9-4,04,74,51,56,05,5
Schwörstadt Schulstrasse 19-11,48,67,41,67,014,8
Schnee Graupel
Seekirch Haldenberg 7-------
Sigmaringendorf Weingartenstraße 70,03,85,04,80,09,811,1
Schnee
Tuttlingen Möhringerstraße 110,2-0,08,60,87,216,8
Gegen 8 Uhr heftiger Schneesturm mit sehr starkem Schneefall. Chaos au [weiterlesen...]
Schnee
Schneehöhe: 10 cm
Ulm Eberhardtstraße 75--2,1-0,0-0,6
Schnee
Ummendorf Tulpenweg-2,5-4,0 k0,19,38,0
leider ablesen am Vortag verpennt ;-)
Regen Schnee
Ummendorf Friedrich-Schiller-Str.-------
Uttenweiler-Ahlen Seekircher Straße 8-2,13,12,0-8,5-
Regen
Vöhringen (Schwarzwald) Drosselweg 3-7,020,0-6,017,020,0
Schneehöhe: 1,5cm
Waldburg Kastanienweg11-9,59,05,5---
Wangen-Bergerhöhe Berg 22,26,99,07,20,93,113,2
Schnee
Warthausen An der Schloßhalde -3,03,0-1,38,73,8
Warthausen Schwabenwiesen --6,30,7-9,25,6
Regen
Warthausen-Barabein Barabein 20-3,05,5-1,07,05,0
Schneehöhe: 1 cm
Weingarten Laurastraße0,51,212,06,01,04,012,0
- 0,9 ° C um 3.30 Uhr
Regen Nieselregen Schneeregen Schnee
Weingarten Hoyerstraße-------
Weingarten Marienstraße1,02,011,05,01,55,014,0
Regen Schneeregen Schnee
Wolfegg-Veesers Veesers 1-------
Wolpertswende Aulendorfer Str. 170,04,96,32,70,91,813,0
Schneeregen Schnee

Stillgelegte Niederschlagsstationen    -    derzeit 49 Stationen

StationLetzte Meldung08.03.09.03.10.03.11.03.12.03.13.03.14.03.Bemerkung 11.03.
Allmannsweiler Eggatsweilerstr.2802.09.2014-------
Aulendorf-Rugetsweiler Erikaweg 325.07.2013-------
Aulendorf-Zollenreute Imterstraße 1209.02.2019-------
Bad Saulgau Willi-Burth-Straße19.09.2011-------
Bad Saulgau Eichendorffweg28.03.2013-------
Bad Saulgau Seewattenstraße 12815.01.2014-------
Bad Saulgau-Lampertsweiler Valentinstr. 2618.02.2015-------
Bad Schussenried-Steinhausen Drosselgasse 4/126.09.2012-------
Bad Waldsee-Michelwinnanden Michelberg 531.12.2014-------
Bad Waldsee-Osterhofen Hochwaldgasse 406.03.2015-------
Bad Waldsee-Steinach Hofraingasse 1510.11.2013-------
Bad Wurzach-Dietmanns Postweg 519.01.2019-------
Bad Wurzach-Haidgau Wengener Straße 507.10.2012-------
Bad Wurzach-Ziegelbach Ziegelbach-Greut 507.11.2014-------
Bergatreute Bolanden 113.02.2012-------
Betzenweiler Offinger Straße 505.01.2017-------
Burgrieden Am Nonnenberg 328.10.2013-------
Burgrieden-Rot Schmiedgasse 518.09.2013-------
Eberhardzell Schillerstraße05.07.2010-------
Ehingen Am Elzengraben17.06.2016-------
Gammertingen Schillerstraße 2216.01.2016-------
Griesingen Blumenstraße 906.10.2015-------
Günzburg Erlenbadweg 34 1/231.12.2010-------
Hoßkirch Kirchstraße 805.01.2018-------
Ingoldingen-Grodt Ingoldinger Weg 1919.11.2016-------
Kisslegg Kirchmoosstraße02.05.2011-------
Krauchenwies-Hausen Rosenrain 123.11.2013-------
Kressbronn Irisstraße 410.03.2010-------
Leutkirch-Ottmannshofen Spitalriedstraße 527.07.2012-------
Leutkirch-Rotis Rotis 5/208.05.2016-------
Leutkirch-Wuchzenhofen Untere Kirchstraße 18/119.09.2016-------
Mietingen Hangweg 1530.12.2017-------
Mössingen-Bästenhardt Weissdornweg 721.07.2014-------
Ostrach Heiligenberger Straße19.08.2013-------
Pfullendorf Ringstraße 18.03.2012-------
Ravensburg Olgastraße30.10.2016-------
Seltmans Amselweg 2209.04.2013-------
Stuttgart-Bad Cannstatt Beuthener Str. 6703.02.2013-------
Stuttgart-Möhringen Glashütter Weg 1023.04.2017-------
Stuttgart-Rohr Hirschsprung 307.11.2012-------
Talheim Im Schecken 2121.08.2016-------
Tannheim Eggmannstr. 42 22.10.2017-------
Tettnang-Ramsbach Jahnstr. 24/126.03.2011-------
Tuttlingen-Möhringen Belchenstraße01.01.2015-------
Ummendorf Bergstraße23.10.2017-------
Vogt Mühlwies 1822.05.2015-------
Wangen-Atzenberg Keplerweg 324.02.2019-------
Weingarten Bischof-Sproll-Straße30.06.2011-------
Wilhelmsdorf Riedhauser Straße 28.10.2012-------
Wilhelmsdorf Seefeld20.08.2013-------
Wurmlingen An der Steig 3014.10.2016-------
Die Niederschlagswerte des gewählten Tages lassen sich durch Klicken auf das Datum sortieren.
Die Angaben sind in l/m².

Wetterbeobachtungen Legende:

  • Regen
  • Nieselregen
  • Schneeregen
  • Schnee
  • Graupel
  • Eiskörner
  • Hagel
  • Bodennebel
  • Gewitter
  • Nebelnässe
  • Schneegriesel

Grafische Darstellung der Tagesniederschläge vom 11.03.2019

< 10.03.201912.03.2019 >Monats- und Jahresniederschlag


 
wetterstationen
wetterstationen
- derzeit 83 Stationen
niederschlagsdatenbank
wetterstationen
- kartographische Darstellung
niederschlagsdatenbank
niederschlagsstationen
- derzeit 112 Stationen
niederschlagsdatenbank
niederschlagsstationen
- kartographische Darstellung
 
  treffpunkt & service
--- Anzeigen --------------------------------
zugriffe:
insgesamt: 46.623.349
aktueller monat: 538
heute: 538
momentan online: 39
 
 
monatshöchstwert: 653.625
vorheriger monat: 364.213
gestern: 13.565
tageshöchstwert: 57.073
 
wetterwarte süd
 
konradstraße 3
info@wetterwarte-sued.com
roland roth
 
88427 bad schussenried